Location: Melbourne
(37.8170°S, 144.9670°E)
Time: 21:19:20
(UTC+11:00)

Transit 2A - All Passes

Search period start: 24 October 2014 00:00
Search period end: 03 November 2014 00:00
Orbit: 598 x 964 km, 66.7° (Epoch: 22 October)

Date Brightness Start Highest point End Pass type
(mag) Time Alt. Az. Time Alt. Az. Time Alt. Az.
24 Oct - 00:27:28 10° S 00:31:17 20° SE 00:34:49 10° E visible
24 Oct - 02:10:00 10° SW 02:14:52 49° WNW 02:19:16 10° N visible
24 Oct - 15:04:10 10° NNE 15:09:27 28° ENE 15:14:37 10° SE daylight
24 Oct - 16:46:22 10° NW 16:52:30 48° WSW 16:58:25 10° SSE daylight
24 Oct - 23:54:34 10° S 23:57:25 15° SE 00:00:07 10° ESE visible
25 Oct - 01:36:19 10° SSW 01:41:24 77° WNW 01:45:58 10° NNE visible
25 Oct - 14:31:43 10° NNE 14:36:05 20° ENE 14:40:23 10° ESE daylight
25 Oct - 16:12:32 10° NW 16:18:53 67° WSW 16:24:59 10° SSE daylight
25 Oct - 18:00:20 10° WSW 18:03:13 13° SW 18:06:02 10° SSW daylight
25 Oct - 23:22:32 10° SSE 23:23:29 10° SE 23:24:25 10° SE visible
26 Oct - 01:02:45 10° SSW 01:07:51 70° ESE 01:12:26 10° NE visible
26 Oct - 02:49:13 10° W 02:50:10 11° W 02:51:06 10° WNW night (unlit)
26 Oct - 14:00:00 10° NE 14:02:46 13° ENE 14:05:30 10° ESE daylight
26 Oct - 15:38:54 10° NNW 15:45:18 89° ENE 15:51:28 10° SSE daylight
26 Oct - 17:25:12 10° W 17:29:19 18° SW 17:33:18 10° S daylight
27 Oct - 00:29:18 10° SSW 00:34:14 46° ESE 00:38:41 10° NE visible
27 Oct - 02:13:46 10° WSW 02:16:54 17° WNW 02:19:52 10° NW visible
27 Oct - 15:05:29 10° NNW 15:11:46 64° ENE 15:17:51 10° SE daylight
27 Oct - 16:50:31 10° WNW 16:55:29 24° SW 17:00:16 10° S daylight
27 Oct - 23:55:58 10° S 00:00:33 32° SE 00:04:42 10° ENE visible
28 Oct - 01:39:29 10° SW 01:43:35 26° WNW 01:47:23 10° NNW visible
28 Oct - 14:32:17 10° N 14:38:17 45° ENE 14:44:07 10° SE daylight
28 Oct - 16:16:09 10° WNW 16:21:43 32° SW 16:27:04 10° S daylight
28 Oct - 23:22:46 10° S 23:26:46 22° SE 23:30:28 10° E visible
29 Oct - 01:05:33 10° SW 01:10:12 41° WNW 01:14:27 10° N visible
29 Oct - 13:59:20 10° N 14:04:51 32° ENE 14:10:13 10° SE daylight
29 Oct - 15:42:01 10° NW 15:48:00 43° SW 15:53:45 10° SSE daylight
29 Oct - 22:49:47 10° S 22:52:56 16° SE 22:55:54 10° E visible
30 Oct - 00:31:48 10° SSW 00:36:46 65° WNW 00:41:15 10° NNE visible
30 Oct - 13:26:44 10° NNE 13:31:28 22° ENE 13:36:06 10° ESE daylight
30 Oct - 15:08:06 10° NW 15:14:21 59° WSW 15:20:21 10° SSE daylight
30 Oct - 16:56:41 10° WSW 16:58:48 12° SW 17:00:53 10° SSW daylight
30 Oct - 22:17:17 10° SSE 22:19:01 12° SE 22:20:42 10° ESE visible
30 Oct - 23:58:11 10° SSW 00:03:15 82° ESE 00:07:47 10° NNE visible
31 Oct - 12:54:40 10° NE 12:58:07 15° ENE 13:01:31 10° ESE daylight
31 Oct - 14:34:23 10° NNW 14:40:46 82° WSW 14:46:52 10° SSE daylight
31 Oct - 16:21:13 10° W 16:24:52 16° SW 16:28:25 10° S daylight
31 Oct - 23:24:42 10° SSW 23:29:39 53° ESE 23:34:07 10° NE visible
01 Nov - 01:09:40 10° WSW 01:12:11 14° WNW 01:14:36 10° NW visible
01 Nov - 14:00:53 10° NNW 14:07:13 73° ENE 14:13:17 10° SSE daylight
01 Nov - 15:46:23 10° W 15:51:01 21° SW 15:55:29 10° S daylight
01 Nov - 22:51:19 10° SSW 22:55:59 36° SE 23:00:13 10° ENE visible
02 Nov - 00:35:08 10° SW 00:38:52 22° WNW 00:42:22 10° NNW visible
02 Nov - 13:27:35 10° N 13:33:42 51° ENE 13:39:36 10° SE daylight
02 Nov - 15:11:53 10° WNW 15:17:13 28° SW 15:22:20 10° S daylight
02 Nov - 22:18:04 10° S 22:22:14 25° SE 22:26:04 10° ENE visible
